Weather History for Lee's Summit, MO

Change the Weather History Date:

Wednesday, January 23, 2013

  Actual Average (KMKC) Record (KMKC)
Temperature  
Mean Temperature 30 °F -  
Max Temperature 46 °F 37 °F 55 °F (2002)
Min Temperature 15 °F 21 °F -5 °F (2003)
Degree Days  
Heating Degree Days 34    
Moisture  
Dew Point 14 °F    
Average Humidity 55    
Maximum Humidity 74    
Minimum Humidity 35    
Precipitation  
Precipitation 0.00 in - - ()
Sea Level Pressure  
Sea Level Pressure 30.29 in    
Wind  
Wind Speed 6 mph (North)    
Max Wind Speed 15 mph    
Max Gust Speed 24 mph    
Visibility 10 miles    
Events      
Averages and records for this station are not official NWS values.
T = Trace of Precipitation, MM = Missing Value Source: NWS Daily Summary

Daily Weather History Graph

Daily Weather History Graph

Search for Another Location

Airport:

Trip Planner

Search our weather history database for the weather conditions in past years. The results will help you decide how hot, cold, wet, or windy it might be!

Date:

Astronomy

Jan. 23, 2013 Rise Set
Actual Time 7:30 AM CST 5:28 PM CST
Civil Twilight 7:01 AM CST 5:57 PM CST
Nautical Twilight 6:29 AM CST 6:29 PM CST
Astronomical Twilight 5:57 AM CST 7:01 PM CST
Moon 2:40 PM CST (1/23) 4:42 AM CST (1/23)
Length of Visible Light 10h 55m
Length of Day
9h 58m
Waxing Gibbous, 89% of the Moon is Illuminated
Jan 23
Waxing Gibbous
Jan 26
Full
Feb 3
Last Quarter
Feb 10
New
Feb 17
First Quarter

Hourly Weather History & Observations

Time (CST) Temp. Windchill Dew Point Humidity Pressure Visibility Wind Dir Wind Speed Gust Speed Precip Events Conditions
12:53 AM 18.0 °F 11.1 °F 7.0 °F 62% 30.32 in 10.0 mi East 4.6 mph - N/A   Clear
1:53 AM 16.0 °F 7.4 °F 7.0 °F 68% 30.31 in 10.0 mi East 5.8 mph - N/A   Clear
2:53 AM 16.0 °F 10.4 °F 7.0 °F 68% 30.30 in 10.0 mi ESE 3.5 mph - N/A   Clear
3:53 AM 16.0 °F 10.4 °F 7.0 °F 68% 30.28 in 10.0 mi ENE 3.5 mph - N/A   Clear
4:53 AM 16.0 °F - 7.0 °F 68% 30.27 in 10.0 mi Calm Calm - N/A   Clear
5:53 AM 15.1 °F - 8.1 °F 74% 30.27 in 10.0 mi Calm Calm - N/A   Clear
6:53 AM 16.0 °F 10.4 °F 7.0 °F 68% 30.27 in 10.0 mi South 3.5 mph - N/A   Clear
7:53 AM 17.1 °F 11.7 °F 8.1 °F 68% 30.27 in 10.0 mi South 3.5 mph - N/A   Clear
8:53 AM 23.0 °F 17.0 °F 14.0 °F 68% 30.26 in 10.0 mi SSW 4.6 mph - N/A   Clear
9:53 AM 30.0 °F 24.1 °F 17.1 °F 59% 30.26 in 10.0 mi SW 5.8 mph - N/A   Clear
10:53 AM 36.0 °F 32.1 °F 19.0 °F 50% 30.27 in 10.0 mi WSW 4.6 mph - N/A   Clear
11:53 AM 41.0 °F 37.1 °F 19.9 °F 43% 30.25 in 10.0 mi West 5.8 mph - N/A   Clear
12:53 PM 43.0 °F 39.5 °F 19.0 °F 38% 30.21 in 10.0 mi Variable 5.8 mph - N/A   Clear
1:53 PM 46.0 °F 40.6 °F 19.9 °F 35% 30.21 in 10.0 mi NW 11.5 mph - N/A   Clear
2:53 PM 46.0 °F 41.4 °F 19.9 °F 35% 30.20 in 10.0 mi NNW 9.2 mph - N/A   Clear
3:53 PM 46.0 °F 40.2 °F 19.9 °F 35% 30.22 in 10.0 mi North 12.7 mph - N/A   Clear
4:53 PM 41.0 °F 36.4 °F 19.9 °F 43% 30.23 in 10.0 mi NNW 6.9 mph - N/A   Clear
5:53 PM 37.0 °F 31.0 °F 19.9 °F 50% 30.27 in 10.0 mi North 8.1 mph - N/A   Clear
6:53 PM 36.0 °F 28.0 °F 19.0 °F 50% 30.31 in 10.0 mi North 11.5 mph - N/A   Clear
7:53 PM 34.0 °F 26.0 °F 19.0 °F 54% 30.33 in 10.0 mi North 10.4 mph - N/A   Clear
8:53 PM 32.0 °F 22.5 °F 15.1 °F 50% 30.38 in 10.0 mi North 12.7 mph 24.2 mph N/A   Clear
9:53 PM 28.9 °F 17.7 °F 12.9 °F 51% 30.40 in 10.0 mi North 15.0 mph - N/A   Clear
10:53 PM 27.0 °F 16.7 °F 14.0 °F 58% 30.41 in 10.0 mi North 11.5 mph - N/A   Clear
11:53 PM 25.0 °F 14.8 °F 12.9 °F 60% 30.44 in 10.0 mi NNE 10.4 mph - N/A   Clear